Content
SEND FEEDBACK

Daily
Averages
Monthly
Summary
United States of America

MUSCATINE, IOWA


Home > North America > United States > Iowa
Elevation: 547 feet     Latitude: 41 22N     Longitude: 091 09W

WEATHER
 
SELECT A DAY
Number of Records: 259,510;   Date Range: 4/23/95 - 9/20/14
 
SHARE

PRINT THIS DATA

[ ← Previous Day ]
WEATHER ALMANAC - JANUARY 31, 2013
[ Next Day → ]
[ °C ]   °F
Weather ElementAverageHighLow
Temperature11.4 °F21.2 °F (12:55 am)3.2 °F (11:15 pm)
Dewpoint2.8 °F15.8 °F (12:55 am)-5.8 °F (9:55 pm)
Humidity68.6 %80 % (12:35 am)56 % (9:55 pm)
Barometer30.05 in30.33 in (11:35 pm)29.80 in (12:35 am)
Wind Speed19.5 mph25.3 mph (2:35 am)
Wind Gust33.4 mph (1:35 pm)
Weather ElementAverage
Visibility8.2 mi
Wind DirectionWNW (291.3 °)

Weather ElementTotal
Precipitation---
Heating Degree Days52.8 (Base 65)
Averaged from 68 records on January 31, 2013
WEATHER CONDITIONS BREAKOUT
WIND DIRECTION BREAKOUT
WEATHER BY HOUR - JANUARY 31, 2013
[ °C ]   °F
Local TimeTemperatureDewpointHumidityBarometerVisibilityWind DirectionWind SpeedGust SpeedPrecipitationEventsConditions
12:35 AM19.4 °F14.0 °F80 %29.80 in10.0 miWest (270°)16.1 mphOvercast
12:55 AM21.2 °F15.8 °F80 %29.81 in10.0 miWest (270°)15.0 mph18.4 mphOvercast
1:15 AM21.2 °F15.8 °F80 %29.81 in10.0 miWest (280°)19.6 mph24.2 mphOvercast
1:35 AM21.2 °F14.0 °F74 %29.82 in10.0 miWest (280°)20.7 mph26.5 mphOvercast
1:55 AM21.2 °F14.0 °F74 %29.83 in10.0 miWest (280°)19.6 mphSnowLight Snow
2:15 AM21.2 °F12.2 °F68 %29.84 in10.0 miWest (280°)20.7 mph29.9 mphOvercast
2:35 AM19.4 °F12.2 °F74 %29.84 in7.0 miWNW (290°)25.3 mph31.1 mphSnowLight Snow
2:55 AM17.6 °F10.4 °F73 %29.85 in5.0 miWNW (300°)19.6 mph29.9 mphSnowLight Snow
3:15 AM15.8 °F8.6 °F73 %29.85 in10.0 miWNW (290°)17.3 mph21.9 mphScattered Clouds
3:35 AM15.8 °F8.6 °F73 %29.85 in10.0 miWest (280°)19.6 mph23.0 mphClear
3:55 AM15.8 °F8.6 °F73 %29.86 in10.0 miWNW (290°)21.9 mph27.6 mphScattered Clouds
4:15 AM15.8 °F6.8 °F68 %29.86 in10.0 miWNW (290°)15.0 mph24.2 mphScattered Clouds
4:35 AM14.0 °F6.8 °F73 %29.87 in10.0 miWest (280°)17.3 mphMostly Cloudy
4:55 AM14.0 °F6.8 °F73 %29.88 in10.0 miWest (280°)13.8 mph21.9 mphScattered Clouds
5:15 AM14.0 °F6.8 °F73 %29.87 in10.0 miWNW (290°)15.0 mphScattered Clouds
5:35 AM14.0 °F6.8 °F73 %29.88 in10.0 miWNW (290°)13.8 mphSnowLight Snow
6:15 AM12.2 °F6.8 °F79 %29.89 in10.0 miWNW (290°)17.3 mph23.0 mphMostly Cloudy
6:55 AM12.2 °F6.8 °F79 %29.91 in10.0 miWNW (290°)19.6 mph23.0 mphMostly Cloudy
7:15 AM12.2 °F6.8 °F79 %29.92 in10.0 miWest (280°)18.4 mph23.0 mphOvercast
7:35 AM12.2 °F5.0 °F73 %29.93 in10.0 miWNW (300°)17.3 mphOvercast
7:55 AM12.2 °F5.0 °F73 %29.93 in7.0 miWNW (290°)17.3 mph21.9 mphSnowLight Snow
8:15 AM12.2 °F5.0 °F73 %29.95 in2.5 miWNW (300°)17.3 mph20.7 mphSnowLight Snow
8:35 AM10.4 °F3.2 °F73 %29.96 in7.0 miWNW (300°)16.1 mphMostly Cloudy
8:55 AM12.2 °F3.2 °F67 %29.97 in10.0 miWNW (300°)17.3 mphScattered Clouds
9:15 AM12.2 °F3.2 °F67 %29.97 in10.0 miWNW (300°)17.3 mphScattered Clouds
9:35 AM12.2 °F3.2 °F67 %29.98 in10.0 miWNW (290°)18.4 mphScattered Clouds
9:55 AM12.2 °F3.2 °F67 %30.00 in10.0 miWNW (290°)17.3 mphMostly Cloudy
10:15 AM10.4 °F1.4 °F67 %30.01 in10.0 miWNW (290°)19.6 mphMostly Cloudy
10:35 AM12.2 °F3.2 °F67 %30.02 in10.0 miWNW (300°)19.6 mph25.3 mphScattered Clouds
10:55 AM12.2 °F1.4 °F62 %30.03 in10.0 miWest (280°)23.0 mph27.6 mphScattered Clouds
11:15 AM12.2 °F1.4 °F62 %30.04 in10.0 miWNW (290°)20.7 mph29.9 mphScattered Clouds
11:35 AM12.2 °F1.4 °F62 %30.04 in5.0 miWNW (290°)23.0 mphHaze
11:55 AM12.2 °F3.2 °F67 %30.05 in10.0 miWest (280°)19.6 mph24.2 mphMostly Cloudy
12:15 PM12.2 °F3.2 °F67 %30.05 in10.0 miWNW (290°)18.4 mph26.5 mphMostly Cloudy
12:35 PM12.2 °F3.2 °F67 %30.05 in2.5 miWest (280°)21.9 mph26.5 mphHaze
12:55 PM12.2 °F1.4 °F62 %30.05 in5.0 miWNW (290°)23.0 mph27.6 mphHaze
1:15 PM12.2 °F1.4 °F62 %30.05 in7.0 miWest (280°)24.2 mph31.1 mphMostly Cloudy
1:35 PM12.2 °F3.2 °F67 %30.06 in2.5 miWest (280°)25.3 mph33.4 mphHaze
1:55 PM12.2 °F1.4 °F62 %30.07 in4.0 miWNW (290°)25.3 mph31.1 mphHaze
2:15 PM10.4 °F3.2 °F73 %30.08 in1.2 miWNW (290°)18.4 mph23.0 mphSnowLight Snow
2:35 PM10.4 °F1.4 °F67 %30.09 in3.0 miWNW (290°)25.3 mph29.9 mphHaze
2:55 PM10.4 °F1.4 °F67 %30.10 in4.0 miWNW (290°)21.9 mphHaze
3:15 PM10.4 °F1.4 °F67 %30.11 in4.0 miWest (280°)18.4 mph26.5 mphHaze
3:35 PM10.4 °F1.4 °F67 %30.12 in2.0 miWNW (290°)24.2 mphHaze
3:55 PM10.4 °F1.4 °F67 %30.13 in5.0 miWest (280°)19.6 mph26.5 mphHaze
4:15 PM10.4 °F1.4 °F67 %30.13 in5.0 miWNW (290°)23.0 mph27.6 mphHaze
4:35 PM8.6 °F-0.4 °F67 %30.15 in7.0 miWNW (290°)20.7 mph26.5 mphMostly Cloudy
4:55 PM8.6 °F-0.4 °F67 %30.15 in7.0 miWNW (290°)25.3 mph29.9 mphScattered Clouds
5:15 PM8.6 °F-0.4 °F67 %30.16 in4.0 miWNW (300°)24.2 mph29.9 mphHaze
5:35 PM8.6 °F-0.4 °F67 %30.17 in5.0 miWNW (290°)23.0 mph32.2 mphHaze
5:55 PM6.8 °F-0.4 °F72 %30.19 in7.0 miNW (310°)20.7 mph27.6 mphScattered Clouds
6:15 PM6.8 °F-2.2 °F67 %30.20 in7.0 miWNW (290°)21.9 mph29.9 mphMostly Cloudy
6:35 PM6.8 °F-2.2 °F67 %30.20 in10.0 miWNW (300°)20.7 mph25.3 mphMostly Cloudy
6:55 PM6.8 °F-2.2 °F67 %30.21 in10.0 miWNW (290°)20.7 mph26.5 mphScattered Clouds
7:15 PM6.8 °F-2.2 °F67 %30.22 in10.0 miWNW (300°)20.7 mph24.2 mphMostly Cloudy
7:35 PM6.8 °F-2.2 °F67 %30.23 in10.0 miWNW (300°)19.6 mph27.6 mphOvercast
7:55 PM6.8 °F-2.2 °F67 %30.24 in10.0 miWNW (300°)21.9 mph29.9 mphOvercast
8:15 PM6.8 °F-2.2 °F67 %30.25 in10.0 miWNW (300°)19.6 mph27.6 mphOvercast
8:35 PM6.8 °F-2.2 °F67 %30.25 in10.0 miNW (310°)16.1 mph28.8 mphOvercast
8:55 PM6.8 °F-2.2 °F67 %30.26 in10.0 miWNW (300°)10.4 mph19.6 mphOvercast
9:15 PM6.8 °F-4.0 °F61 %30.26 in10.0 miWNW (300°)18.4 mph26.5 mphOvercast
9:35 PM6.8 °F-4.0 °F61 %30.28 in10.0 miNW (310°)15.0 mphOvercast
9:55 PM6.8 °F-5.8 °F56 %30.29 in10.0 miWNW (300°)18.4 mph25.3 mphOvercast
10:15 PM5.0 °F-5.8 °F61 %30.29 in10.0 miWNW (300°)21.9 mph27.6 mphMostly Cloudy
10:35 PM5.0 °F-5.8 °F61 %30.30 in10.0 miWNW (300°)17.3 mphMostly Cloudy
10:55 PM5.0 °F-5.8 °F61 %30.31 in10.0 miWNW (300°)17.3 mph25.3 mphMostly Cloudy
11:15 PM3.2 °F-5.8 °F66 %30.32 in10.0 miWNW (300°)16.1 mph25.3 mphMostly Cloudy
11:35 PM3.2 °F-5.8 °F66 %30.33 in10.0 miNW (310°)15.0 mph21.9 mphOvercast
Hourly data recorded from KMUT, located miles away from Muscatine, Iowa







STORIES FROM OUR PARTNERS